owner,sensor,date,latitude,longitude,vertical_datum,mass_concentration_of_oxygen_in_sea_water,qcFlag 
NERRS,ioos:station:NOAA.NERRS:wkbfrwq:1,2019-02-01T00:45:00Z,30.4162,-87.8228,2.64,13.0,1111122 
NERRS,ioos:station:NOAA.NERRS:wkbfrwq:1,2019-02-01T01:45:00Z,30.4162,-87.8228,2.65,12.8,1111122 
NERRS,ioos:station:NOAA.NERRS:wkbfrwq:1,2019-02-01T02:45:00Z,30.4162,-87.8228,2.61,12.4,1111122 
NERRS,ioos:station:NOAA.NERRS:wkbfrwq:1,2019-02-01T03:45:00Z,30.4162,-87.8228,2.57,12.5,1111122 
NERRS,ioos:station:NOAA.NERRS:wkbfrwq:1,2019-02-01T04:45:00Z,30.4162,-87.8228,2.53,12.7,1111122 
NERRS,ioos:station:NOAA.NERRS:wkbfrwq:1,2019-02-01T05:45:00Z,30.4162,-87.8228,2.47,11.2,1111122 
NERRS,ioos:station:NOAA.NERRS:wkbfrwq:1,2019-02-01T06:45:00Z,30.4162,-87.8228,2.38,11.3,1111122 
NERRS,ioos:station:NOAA.NERRS:wkbfrwq:1,2019-02-01T07:45:00Z,30.4162,-87.8228,2.3,10.3,1111122 
NERRS,ioos:station:NOAA.NERRS:wkbfrwq:1,2019-02-01T08:45:00Z,30.4162,-87.8228,2.26,10.0,1111122 
NERRS,ioos:station:NOAA.NERRS:wkbfrwq:1,2019-02-01T09:45:00Z,30.4162,-87.8228,2.2,9.8,1111122 
NERRS,ioos:station:NOAA.NERRS:wkbfrwq:1,2019-02-01T10:45:00Z,30.4162,-87.8228,2.13,9.4,1111122 
NERRS,ioos:station:NOAA.NERRS:wkbfrwq:1,2019-02-01T11:45:00Z,30.4162,-87.8228,2.08,9.2,1111122 
NERRS,ioos:station:NOAA.NERRS:wkbfrwq:1,2019-02-01T12:45:00Z,30.4162,-87.8228,2.06,9.4,1111122 
NERRS,ioos:station:NOAA.NERRS:wkbfrwq:1,2019-02-01T13:45:00Z,30.4162,-87.8228,2.11,10.7,1111122 
NERRS,ioos:station:NOAA.NERRS:wkbfrwq:1,2019-02-01T15:45:00Z,30.4162,-87.8228,2.16,10.3,1111122 
NERRS,ioos:station:NOAA.NERRS:wkbfrwq:1,2019-02-01T17:45:00Z,30.4162,-87.8228,2.3,10.7,1111122 
NERRS,ioos:station:NOAA.NERRS:wkbfrwq:1,2019-02-01T18:45:00Z,30.4162,-87.8228,2.4,11.3,1111122 
NERRS,ioos:station:NOAA.NERRS:wkbfrwq:1,2019-02-01T19:45:00Z,30.4162,-87.8228,2.47,12.1,1111122 
NERRS,ioos:station:NOAA.NERRS:wkbfrwq:1,2019-02-01T20:45:00Z,30.4162,-87.8228,2.51,12.1,1111122 
NERRS,ioos:station:NOAA.NERRS:wkbfrwq:1,2019-02-01T21:45:00Z,30.4162,-87.8228,2.53,12.3,1111122 
NERRS,ioos:station:NOAA.NERRS:wkbfrwq:1,2019-02-01T23:45:00Z,30.4162,-87.8228,2.67,12.4,1111122 
NERRS,ioos:station:NOAA.NERRS:wkbfrwq:1,2019-02-02T00:45:00Z,30.4162,-87.8228,2.71,12.3,1111122 
NERRS,ioos:station:NOAA.NERRS:wkbfrwq:1,2019-02-02T01:45:00Z,30.4162,-87.8228,2.72,12.4,1111122 
NERRS,ioos:station:NOAA.NERRS:wkbfrwq:1,2019-02-02T02:45:00Z,30.4162,-87.8228,2.72,12.3,1111122 
NERRS,ioos:station:NOAA.NERRS:wkbfrwq:1,2019-02-02T03:45:00Z,30.4162,-87.8228,2.69,12.3,1111122 
NERRS,ioos:station:NOAA.NERRS:wkbfrwq:1,2019-02-02T04:45:00Z,30.4162,-87.8228,2.63,12.0,1111122 
NERRS,ioos:station:NOAA.NERRS:wkbfrwq:1,2019-02-02T05:45:00Z,30.4162,-87.8228,2.56,11.7,1111122 
NERRS,ioos:station:NOAA.NERRS:wkbfrwq:1,2019-02-02T06:45:00Z,30.4162,-87.8228,2.49,12.0,1111122 
NERRS,ioos:station:NOAA.NERRS:wkbfrwq:1,2019-02-02T07:45:00Z,30.4162,-87.8228,2.44,11.3,1111122 
NERRS,ioos:station:NOAA.NERRS:wkbfrwq:1,2019-02-02T08:45:00Z,30.4162,-87.8228,2.36,9.9,1111122 
NERRS,ioos:station:NOAA.NERRS:wkbfrwq:1,2019-02-02T09:45:00Z,30.4162,-87.8228,2.28,9.7,1111122 
NERRS,ioos:station:NOAA.NERRS:wkbfrwq:1,2019-02-02T10:45:00Z,30.4162,-87.8228,2.21,9.4,1111122 
NERRS,ioos:station:NOAA.NERRS:wkbfrwq:1,2019-02-02T11:45:00Z,30.4162,-87.8228,2.17,9.4,1111122 
NERRS,ioos:station:NOAA.NERRS:wkbfrwq:1,2019-02-02T12:45:00Z,30.4162,-87.8228,2.16,10.2,1111122 
NERRS,ioos:station:NOAA.NERRS:wkbfrwq:1,2019-02-02T13:45:00Z,30.4162,-87.8228,2.13,10.8,1111122 
NERRS,ioos:station:NOAA.NERRS:wkbfrwq:1,2019-02-02T14:45:00Z,30.4162,-87.8228,2.13,10.6,1111122 
NERRS,ioos:station:NOAA.NERRS:wkbfrwq:1,2019-02-02T15:45:00Z,30.4162,-87.8228,2.15,10.7,1111122 
NERRS,ioos:station:NOAA.NERRS:wkbfrwq:1,2019-02-02T16:45:00Z,30.4162,-87.8228,2.21,10.8,1111122 
NERRS,ioos:station:NOAA.NERRS:wkbfrwq:1,2019-02-02T17:45:00Z,30.4162,-87.8228,2.26,11.4,1111122 
NERRS,ioos:station:NOAA.NERRS:wkbfrwq:1,2019-02-02T18:45:00Z,30.4162,-87.8228,2.29,12.0,1111122 
NERRS,ioos:station:NOAA.NERRS:wkbfrwq:1,2019-02-02T19:45:00Z,30.4162,-87.8228,2.35,12.2,1111122 
NERRS,ioos:station:NOAA.NERRS:wkbfrwq:1,2019-02-02T21:45:00Z,30.4162,-87.8228,2.47,12.8,1111122 
NERRS,ioos:station:NOAA.NERRS:wkbfrwq:1,2019-02-02T22:45:00Z,30.4162,-87.8228,2.53,12.7,1111122 
NERRS,ioos:station:NOAA.NERRS:wkbfrwq:1,2019-02-03T00:45:00Z,30.4162,-87.8228,2.64,12.8,1111122 
NERRS,ioos:station:NOAA.NERRS:wkbfrwq:1,2019-02-03T01:45:00Z,30.4162,-87.8228,2.68,12.8,1111122 
NERRS,ioos:station:NOAA.NERRS:wkbfrwq:1,2019-02-03T02:45:00Z,30.4162,-87.8228,2.71,13.0,1111122 
NERRS,ioos:station:NOAA.NERRS:wkbfrwq:1,2019-02-03T03:45:00Z,30.4162,-87.8228,2.69,13.0,1111122 
NERRS,ioos:station:NOAA.NERRS:wkbfrwq:1,2019-02-03T04:45:00Z,30.4162,-87.8228,2.64,12.4,1111122 
NERRS,ioos:station:NOAA.NERRS:wkbfrwq:1,2019-02-03T05:45:00Z,30.4162,-87.8228,2.57,12.4,1111122 
NERRS,ioos:station:NOAA.NERRS:wkbfrwq:1,2019-02-03T06:45:00Z,30.4162,-87.8228,2.5,12.2,1111122 
NERRS,ioos:station:NOAA.NERRS:wkbfrwq:1,2019-02-03T07:45:00Z,30.4162,-87.8228,2.43,11.5,1111122 
NERRS,ioos:station:NOAA.NERRS:wkbfrwq:1,2019-02-03T08:45:00Z,30.4162,-87.8228,2.35,11.0,1111122 
NERRS,ioos:station:NOAA.NERRS:wkbfrwq:1,2019-02-03T09:45:00Z,30.4162,-87.8228,2.28,10.4,1111122 
NERRS,ioos:station:NOAA.NERRS:wkbfrwq:1,2019-02-03T10:45:00Z,30.4162,-87.8228,2.22,9.9,1111122 
NERRS,ioos:station:NOAA.NERRS:wkbfrwq:1,2019-02-03T11:45:00Z,30.4162,-87.8228,2.17,9.9,1111122 
NERRS,ioos:station:NOAA.NERRS:wkbfrwq:1,2019-02-03T12:45:00Z,30.4162,-87.8228,2.13,9.5,1111122 
NERRS,ioos:station:NOAA.NERRS:wkbfrwq:1,2019-02-03T13:45:00Z,30.4162,-87.8228,2.11,10.3,1111122 
NERRS,ioos:station:NOAA.NERRS:wkbfrwq:1,2019-02-03T14:45:00Z,30.4162,-87.8228,2.12,10.9,1111122 
NERRS,ioos:station:NOAA.NERRS:wkbfrwq:1,2019-02-03T15:45:00Z,30.4162,-87.8228,2.13,10.8,1111122 
NERRS,ioos:station:NOAA.NERRS:wkbfrwq:1,2019-02-03T16:45:00Z,30.4162,-87.8228,2.16,11.1,1111122 
NERRS,ioos:station:NOAA.NERRS:wkbfrwq:1,2019-02-03T18:45:00Z,30.4162,-87.8228,2.25,12.9,1111122 
NERRS,ioos:station:NOAA.NERRS:wkbfrwq:1,2019-02-03T19:45:00Z,30.4162,-87.8228,2.29,13.0,1111122 
NERRS,ioos:station:NOAA.NERRS:wkbfrwq:1,2019-02-03T20:45:00Z,30.4162,-87.8228,2.32,13.0,1111122 
NERRS,ioos:station:NOAA.NERRS:wkbfrwq:1,2019-02-03T21:45:00Z,30.4162,-87.8228,2.38,13.2,1111122 
NERRS,ioos:station:NOAA.NERRS:wkbfrwq:1,2019-02-03T22:45:00Z,30.4162,-87.8228,2.44,13.2,1111122 
NERRS,ioos:station:NOAA.NERRS:wkbfrwq:1,2019-02-03T23:45:00Z,30.4162,-87.8228,2.48,13.1,1111122 
NERRS,ioos:station:NOAA.NERRS:wkbfrwq:1,2019-02-04T00:45:00Z,30.4162,-87.8228,2.54,13.3,1111122 
NERRS,ioos:station:NOAA.NERRS:wkbfrwq:1,2019-02-04T01:45:00Z,30.4162,-87.8228,2.61,13.4,1111122 
NERRS,ioos:station:NOAA.NERRS:wkbfrwq:1,2019-02-04T02:45:00Z,30.4162,-87.8228,2.67,13.3,1111122 
NERRS,ioos:station:NOAA.NERRS:wkbfrwq:1,2019-02-04T03:45:00Z,30.4162,-87.8228,2.67,13.2,1111122 
NERRS,ioos:station:NOAA.NERRS:wkbfrwq:1,2019-02-04T04:45:00Z,30.4162,-87.8228,2.62,13.3,1111122 
NERRS,ioos:station:NOAA.NERRS:wkbfrwq:1,2019-02-04T05:45:00Z,30.4162,-87.8228,2.6,13.1,1111122 
NERRS,ioos:station:NOAA.NERRS:wkbfrwq:1,2019-02-04T06:45:00Z,30.4162,-87.8228,2.53,12.6,1111122 
NERRS,ioos:station:NOAA.NERRS:wkbfrwq:1,2019-02-04T07:45:00Z,30.4162,-87.8228,2.45,11.9,1111122 
NERRS,ioos:station:NOAA.NERRS:wkbfrwq:1,2019-02-04T08:45:00Z,30.4162,-87.8228,2.38,11.9,1111122 
NERRS,ioos:station:NOAA.NERRS:wkbfrwq:1,2019-02-04T09:45:00Z,30.4162,-87.8228,2.31,11.0,1111122 
NERRS,ioos:station:NOAA.NERRS:wkbfrwq:1,2019-02-04T10:45:00Z,30.4162,-87.8228,2.25,10.2,1111122 
NERRS,ioos:station:NOAA.NERRS:wkbfrwq:1,2019-02-04T11:45:00Z,30.4162,-87.8228,2.19,9.9,1111122 
NERRS,ioos:station:NOAA.NERRS:wkbfrwq:1,2019-02-04T12:45:00Z,30.4162,-87.8228,2.14,9.4,1111122 
NERRS,ioos:station:NOAA.NERRS:wkbfrwq:1,2019-02-04T13:45:00Z,30.4162,-87.8228,2.14,10.3,1111122 
NERRS,ioos:station:NOAA.NERRS:wkbfrwq:1,2019-02-04T14:45:00Z,30.4162,-87.8228,2.14,10.6,1111122 
NERRS,ioos:station:NOAA.NERRS:wkbfrwq:1,2019-02-04T15:45:00Z,30.4162,-87.8228,2.16,10.4,1111122 
NERRS,ioos:station:NOAA.NERRS:wkbfrwq:1,2019-02-04T16:45:00Z,30.4162,-87.8228,2.17,10.9,1111122 
NERRS,ioos:station:NOAA.NERRS:wkbfrwq:1,2019-02-04T18:45:00Z,30.4162,-87.8228,2.23,10.7,1111122 
NERRS,ioos:station:NOAA.NERRS:wkbfrwq:1,2019-02-04T19:45:00Z,30.4162,-87.8228,2.28,12.0,1111122 
NERRS,ioos:station:NOAA.NERRS:wkbfrwq:1,2019-02-04T21:45:00Z,30.4162,-87.8228,2.37,12.1,1111122 
NERRS,ioos:station:NOAA.NERRS:wkbfrwq:1,2019-02-04T22:45:00Z,30.4162,-87.8228,2.42,12.9,1111122 
NERRS,ioos:station:NOAA.NERRS:wkbfrwq:1,2019-02-04T23:45:00Z,30.4162,-87.8228,2.45,12.5,1111122 
NERRS,ioos:station:NOAA.NERRS:wkbfrwq:1,2019-02-05T00:45:00Z,30.4162,-87.8228,2.52,12.7,1111122 
NERRS,ioos:station:NOAA.NERRS:wkbfrwq:1,2019-02-05T01:45:00Z,30.4162,-87.8228,2.56,12.7,1111122 
NERRS,ioos:station:NOAA.NERRS:wkbfrwq:1,2019-02-05T02:45:00Z,30.4162,-87.8228,2.62,12.4,1111122 
NERRS,ioos:station:NOAA.NERRS:wkbfrwq:1,2019-02-05T03:45:00Z,30.4162,-87.8228,2.66,12.3,1111122 
NERRS,ioos:station:NOAA.NERRS:wkbfrwq:1,2019-02-05T04:45:00Z,30.4162,-87.8228,2.62,12.1,1111122 
NERRS,ioos:station:NOAA.NERRS:wkbfrwq:1,2019-02-05T05:45:00Z,30.4162,-87.8228,2.58,11.9,1111122 
NERRS,ioos:station:NOAA.NERRS:wkbfrwq:1,2019-02-05T06:45:00Z,30.4162,-87.8228,2.53,11.9,1111122 
NERRS,ioos:station:NOAA.NERRS:wkbfrwq:1,2019-02-05T07:45:00Z,30.4162,-87.8228,2.48,11.7,1111122 
NERRS,ioos:station:NOAA.NERRS:wkbfrwq:1,2019-02-05T08:45:00Z,30.4162,-87.8228,2.41,11.3,1111122 
NERRS,ioos:station:NOAA.NERRS:wkbfrwq:1,2019-02-05T09:45:00Z,30.4162,-87.8228,2.33,10.7,1111122 
NERRS,ioos:station:NOAA.NERRS:wkbfrwq:1,2019-02-05T10:45:00Z,30.4162,-87.8228,2.26,9.8,1111122 
NERRS,ioos:station:NOAA.NERRS:wkbfrwq:1,2019-02-05T11:45:00Z,30.4162,-87.8228,2.21,9.3,1111122 
NERRS,ioos:station:NOAA.NERRS:wkbfrwq:1,2019-02-05T12:45:00Z,30.4162,-87.8228,2.18,9.5,1111122 
NERRS,ioos:station:NOAA.NERRS:wkbfrwq:1,2019-02-05T13:45:00Z,30.4162,-87.8228,2.16,9.9,1111122 
NERRS,ioos:station:NOAA.NERRS:wkbfrwq:1,2019-02-05T14:45:00Z,30.4162,-87.8228,2.16,9.5,1111122 
NERRS,ioos:station:NOAA.NERRS:wkbfrwq:1,2019-02-05T16:45:00Z,30.4162,-87.8228,2.21,10.3,1111122 
NERRS,ioos:station:NOAA.NERRS:wkbfrwq:1,2019-02-05T17:45:00Z,30.4162,-87.8228,2.22,10.2,1111122 
NERRS,ioos:station:NOAA.NERRS:wkbfrwq:1,2019-02-05T18:45:00Z,30.4162,-87.8228,2.24,10.4,1111122 
NERRS,ioos:station:NOAA.NERRS:wkbfrwq:1,2019-02-05T19:45:00Z,30.4162,-87.8228,2.32,10.9,1111122 
NERRS,ioos:station:NOAA.NERRS:wkbfrwq:1,2019-02-05T20:45:00Z,30.4162,-87.8228,2.37,11.2,1111122 
NERRS,ioos:station:NOAA.NERRS:wkbfrwq:1,2019-02-05T21:45:00Z,30.4162,-87.8228,2.38,10.9,1111122 
NERRS,ioos:station:NOAA.NERRS:wkbfrwq:1,2019-02-05T23:45:00Z,30.4162,-87.8228,2.46,11.7,1111122 
NERRS,ioos:station:NOAA.NERRS:wkbfrwq:1,2019-02-06T00:45:00Z,30.4162,-87.8228,2.49,11.4,1111122 
NERRS,ioos:station:NOAA.NERRS:wkbfrwq:1,2019-02-06T01:45:00Z,30.4162,-87.8228,2.52,11.6,1111122 
NERRS,ioos:station:NOAA.NERRS:wkbfrwq:1,2019-02-06T02:45:00Z,30.4162,-87.8228,2.57,12.1,1111122 
NERRS,ioos:station:NOAA.NERRS:wkbfrwq:1,2019-02-06T03:45:00Z,30.4162,-87.8228,2.6,12.0,1111122 
NERRS,ioos:station:NOAA.NERRS:wkbfrwq:1,2019-02-06T04:45:00Z,30.4162,-87.8228,2.62,11.9,1111122 
NERRS,ioos:station:NOAA.NERRS:wkbfrwq:1,2019-02-06T05:45:00Z,30.4162,-87.8228,2.61,11.9,1111122 
NERRS,ioos:station:NOAA.NERRS:wkbfrwq:1,2019-02-06T06:45:00Z,30.4162,-87.8228,2.57,11.7,1111122 
NERRS,ioos:station:NOAA.NERRS:wkbfrwq:1,2019-02-06T07:45:00Z,30.4162,-87.8228,2.51,11.3,1111122 
NERRS,ioos:station:NOAA.NERRS:wkbfrwq:1,2019-02-06T08:45:00Z,30.4162,-87.8228,2.45,11.0,1111122 
NERRS,ioos:station:NOAA.NERRS:wkbfrwq:1,2019-02-06T09:45:00Z,30.4162,-87.8228,2.38,11.0,1111122 
NERRS,ioos:station:NOAA.NERRS:wkbfrwq:1,2019-02-06T10:45:00Z,30.4162,-87.8228,2.32,10.1,1111122 
NERRS,ioos:station:NOAA.NERRS:wkbfrwq:1,2019-02-06T11:45:00Z,30.4162,-87.8228,2.25,10.0,1111122 
NERRS,ioos:station:NOAA.NERRS:wkbfrwq:1,2019-02-06T12:45:00Z,30.4162,-87.8228,2.19,8.9,1111122 
NERRS,ioos:station:NOAA.NERRS:wkbfrwq:1,2019-02-06T13:45:00Z,30.4162,-87.8228,2.17,8.8,1111122 
NERRS,ioos:station:NOAA.NERRS:wkbfrwq:1,2019-02-06T14:45:00Z,30.4162,-87.8228,2.17,9.2,1111122 
NERRS,ioos:station:NOAA.NERRS:wkbfrwq:1,2019-02-06T15:45:00Z,30.4162,-87.8228,2.18,9.1,1111122 
NERRS,ioos:station:NOAA.NERRS:wkbfrwq:1,2019-02-06T17:45:00Z,30.4162,-87.8228,2.22,9.1,1111122 
NERRS,ioos:station:NOAA.NERRS:wkbfrwq:1,2019-02-06T18:45:00Z,30.4162,-87.8228,2.26,9.2,1111122 
NERRS,ioos:station:NOAA.NERRS:wkbfrwq:1,2019-02-06T19:45:00Z,30.4162,-87.8228,2.3,8.9,1111122 
NERRS,ioos:station:NOAA.NERRS:wkbfrwq:1,2019-02-06T22:45:00Z,30.4162,-87.8228,2.36,8.9,1111122 
NERRS,ioos:station:NOAA.NERRS:wkbfrwq:1,2019-02-06T23:45:00Z,30.4162,-87.8228,2.37,9.2,1111122 
NERRS,ioos:station:NOAA.NERRS:wkbfrwq:1,2019-02-07T00:45:00Z,30.4162,-87.8228,2.4,9.7,1111122 
NERRS,ioos:station:NOAA.NERRS:wkbfrwq:1,2019-02-07T01:45:00Z,30.4162,-87.8228,2.44,9.5,1111122 
NERRS,ioos:station:NOAA.NERRS:wkbfrwq:1,2019-02-07T02:45:00Z,30.4162,-87.8228,2.5,10.9,1111122 
NERRS,ioos:station:NOAA.NERRS:wkbfrwq:1,2019-02-07T03:45:00Z,30.4162,-87.8228,2.54,10.2,1111122 
NERRS,ioos:station:NOAA.NERRS:wkbfrwq:1,2019-02-07T04:45:00Z,30.4162,-87.8228,2.58,10.4,1111122 
NERRS,ioos:station:NOAA.NERRS:wkbfrwq:1,2019-02-07T05:45:00Z,30.4162,-87.8228,2.59,10.3,1111122 
NERRS,ioos:station:NOAA.NERRS:wkbfrwq:1,2019-02-07T06:45:00Z,30.4162,-87.8228,2.55,10.4,1111122 
NERRS,ioos:station:NOAA.NERRS:wkbfrwq:1,2019-02-07T07:45:00Z,30.4162,-87.8228,2.51,10.4,1111122 
NERRS,ioos:station:NOAA.NERRS:wkbfrwq:1,2019-02-07T08:45:00Z,30.4162,-87.8228,2.45,10.2,1111122 
NERRS,ioos:station:NOAA.NERRS:wkbfrwq:1,2019-02-07T09:45:00Z,30.4162,-87.8228,2.38,9.8,1111122 
NERRS,ioos:station:NOAA.NERRS:wkbfrwq:1,2019-02-07T10:45:00Z,30.4162,-87.8228,2.32,9.5,1111122 
NERRS,ioos:station:NOAA.NERRS:wkbfrwq:1,2019-02-07T11:45:00Z,30.4162,-87.8228,2.26,9.4,1111122 
NERRS,ioos:station:NOAA.NERRS:wkbfrwq:1,2019-02-07T12:45:00Z,30.4162,-87.8228,2.21,8.4,1111122 
NERRS,ioos:station:NOAA.NERRS:wkbfrwq:1,2019-02-07T13:45:00Z,30.4162,-87.8228,2.18,8.6,1111122 
NERRS,ioos:station:NOAA.NERRS:wkbfrwq:1,2019-02-07T15:45:00Z,30.4162,-87.8228,2.19,7.9,1111122 
NERRS,ioos:station:NOAA.NERRS:wkbfrwq:1,2019-02-07T17:45:00Z,30.4162,-87.8228,2.24,8.2,1111122 
NERRS,ioos:station:NOAA.NERRS:wkbfrwq:1,2019-02-07T18:45:00Z,30.4162,-87.8228,2.26,7.9,1111122 
NERRS,ioos:station:NOAA.NERRS:wkbfrwq:1,2019-02-07T19:45:00Z,30.4162,-87.8228,2.29,9.8,1111122 
NERRS,ioos:station:NOAA.NERRS:wkbfrwq:1,2019-02-07T20:45:00Z,30.4162,-87.8228,2.3,9.9,1111122 
NERRS,ioos:station:NOAA.NERRS:wkbfrwq:1,2019-02-07T21:45:00Z,30.4162,-87.8228,2.3,9.7,1111122 
NERRS,ioos:station:NOAA.NERRS:wkbfrwq:1,2019-02-07T23:45:00Z,30.4162,-87.8228,2.35,10.0,1111122 
NERRS,ioos:station:NOAA.NERRS:wkbfrwq:1,2019-02-08T00:45:00Z,30.4162,-87.8228,2.38,8.8,1111122 
NERRS,ioos:station:NOAA.NERRS:wkbfrwq:1,2019-02-08T01:45:00Z,30.4162,-87.8228,2.42,9.4,1111122 
NERRS,ioos:station:NOAA.NERRS:wkbfrwq:1,2019-02-08T02:45:00Z,30.4162,-87.8228,2.46,9.7,1111122 
NERRS,ioos:station:NOAA.NERRS:wkbfrwq:1,2019-02-08T03:45:00Z,30.4162,-87.8228,2.52,9.9,1111122 
NERRS,ioos:station:NOAA.NERRS:wkbfrwq:1,2019-02-08T04:45:00Z,30.4162,-87.8228,2.58,9.4,1111122 
NERRS,ioos:station:NOAA.NERRS:wkbfrwq:1,2019-02-08T05:45:00Z,30.4162,-87.8228,2.62,9.2,1111122 
NERRS,ioos:station:NOAA.NERRS:wkbfrwq:1,2019-02-08T06:45:00Z,30.4162,-87.8228,2.62,8.9,1111122 
NERRS,ioos:station:NOAA.NERRS:wkbfrwq:1,2019-02-08T07:45:00Z,30.4162,-87.8228,2.56,9.3,1111122 
NERRS,ioos:station:NOAA.NERRS:wkbfrwq:1,2019-02-08T08:45:00Z,30.4162,-87.8228,2.49,9.3,1111122 
NERRS,ioos:station:NOAA.NERRS:wkbfrwq:1,2019-02-08T09:45:00Z,30.4162,-87.8228,2.5,8.7,1111122 
NERRS,ioos:station:NOAA.NERRS:wkbfrwq:1,2019-02-08T10:45:00Z,30.4162,-87.8228,2.38,9.0,1111122 
NERRS,ioos:station:NOAA.NERRS:wkbfrwq:1,2019-02-08T11:45:00Z,30.4162,-87.8228,2.24,8.7,1111122 
NERRS,ioos:station:NOAA.NERRS:wkbfrwq:1,2019-02-08T12:45:00Z,30.4162,-87.8228,2.16,8.3,1111122 
NERRS,ioos:station:NOAA.NERRS:wkbfrwq:1,2019-02-08T13:45:00Z,30.4162,-87.8228,2.14,8.2,1111122 
NERRS,ioos:station:NOAA.NERRS:wkbfrwq:1,2019-02-08T14:45:00Z,30.4162,-87.8228,2.11,8.3,1111122 
NERRS,ioos:station:NOAA.NERRS:wkbfrwq:1,2019-02-08T16:45:00Z,30.4162,-87.8228,2.02,8.2,1111122 
NERRS,ioos:station:NOAA.NERRS:wkbfrwq:1,2019-02-08T17:45:00Z,30.4162,-87.8228,1.95,8.1,1111122 
NERRS,ioos:station:NOAA.NERRS:wkbfrwq:1,2019-02-08T18:45:00Z,30.4162,-87.8228,1.93,8.3,1111122 
NERRS,ioos:station:NOAA.NERRS:wkbfrwq:1,2019-02-08T19:45:00Z,30.4162,-87.8228,1.94,8.5,1111122 
NERRS,ioos:station:NOAA.NERRS:wkbfrwq:1,2019-02-08T21:45:00Z,30.4162,-87.8228,2.02,8.6,1111122 
NERRS,ioos:station:NOAA.NERRS:wkbfrwq:1,2019-02-08T23:45:00Z,30.4162,-87.8228,2.07,8.7,1111122 
NERRS,ioos:station:NOAA.NERRS:wkbfrwq:1,2019-02-09T00:45:00Z,30.4162,-87.8228,2.13,9.1,1111122 
NERRS,ioos:station:NOAA.NERRS:wkbfrwq:1,2019-02-09T01:45:00Z,30.4162,-87.8228,2.19,9.3,1111122 
NERRS,ioos:station:NOAA.NERRS:wkbfrwq:1,2019-02-09T02:45:00Z,30.4162,-87.8228,2.18,9.0,1111122 
NERRS,ioos:station:NOAA.NERRS:wkbfrwq:1,2019-02-09T03:45:00Z,30.4162,-87.8228,2.15,8.7,1111122 
NERRS,ioos:station:NOAA.NERRS:wkbfrwq:1,2019-02-09T04:45:00Z,30.4162,-87.8228,2.09,8.6,1111122 
NERRS,ioos:station:NOAA.NERRS:wkbfrwq:1,2019-02-09T05:45:00Z,30.4162,-87.8228,2.11,8.5,1111122 
NERRS,ioos:station:NOAA.NERRS:wkbfrwq:1,2019-02-09T06:45:00Z,30.4162,-87.8228,2.12,8.7,1111122 
NERRS,ioos:station:NOAA.NERRS:wkbfrwq:1,2019-02-09T07:45:00Z,30.4162,-87.8228,2.13,8.6,1111122 
NERRS,ioos:station:NOAA.NERRS:wkbfrwq:1,2019-02-09T08:45:00Z,30.4162,-87.8228,2.1,8.5,1111122 
NERRS,ioos:station:NOAA.NERRS:wkbfrwq:1,2019-02-09T09:45:00Z,30.4162,-87.8228,2.11,8.5,1111122 
NERRS,ioos:station:NOAA.NERRS:wkbfrwq:1,2019-02-09T10:45:00Z,30.4162,-87.8228,2.13,8.5,1111122 
NERRS,ioos:station:NOAA.NERRS:wkbfrwq:1,2019-02-09T11:45:00Z,30.4162,-87.8228,2.14,8.5,1111122 
NERRS,ioos:station:NOAA.NERRS:wkbfrwq:1,2019-02-09T12:45:00Z,30.4162,-87.8228,2.1,8.5,1111122 
NERRS,ioos:station:NOAA.NERRS:wkbfrwq:1,2019-02-09T13:45:00Z,30.4162,-87.8228,2.08,8.4,1111122 
NERRS,ioos:station:NOAA.NERRS:wkbfrwq:1,2019-02-09T14:45:00Z,30.4162,-87.8228,2.11,8.2,1111122 
NERRS,ioos:station:NOAA.NERRS:wkbfrwq:1,2019-02-09T15:45:00Z,30.4162,-87.8228,2.16,8.6,1111122 
NERRS,ioos:station:NOAA.NERRS:wkbfrwq:1,2019-02-09T16:45:00Z,30.4162,-87.8228,2.14,9.1,1111122 
NERRS,ioos:station:NOAA.NERRS:wkbfrwq:1,2019-02-09T18:45:00Z,30.4162,-87.8228,2.12,9.4,1111122 
NERRS,ioos:station:NOAA.NERRS:wkbfrwq:1,2019-02-09T19:45:00Z,30.4162,-87.8228,2.18,9.7,1111122 
NERRS,ioos:station:NOAA.NERRS:wkbfrwq:1,2019-02-09T20:45:00Z,30.4162,-87.8228,2.26,10.5,1111122 
NERRS,ioos:station:NOAA.NERRS:wkbfrwq:1,2019-02-09T23:45:00Z,30.4162,-87.8228,2.32,11.1,1111122 
NERRS,ioos:station:NOAA.NERRS:wkbfrwq:1,2019-02-10T00:45:00Z,30.4162,-87.8228,2.31,11.0,1111122 
NERRS,ioos:station:NOAA.NERRS:wkbfrwq:1,2019-02-10T01:45:00Z,30.4162,-87.8228,2.32,11.8,1111122 
NERRS,ioos:station:NOAA.NERRS:wkbfrwq:1,2019-02-10T02:45:00Z,30.4162,-87.8228,2.31,10.7,1111122 
NERRS,ioos:station:NOAA.NERRS:wkbfrwq:1,2019-02-10T03:45:00Z,30.4162,-87.8228,2.31,9.8,1111122 
NERRS,ioos:station:NOAA.NERRS:wkbfrwq:1,2019-02-10T04:45:00Z,30.4162,-87.8228,2.3,11.0,1111122 
NERRS,ioos:station:NOAA.NERRS:wkbfrwq:1,2019-02-10T05:45:00Z,30.4162,-87.8228,2.3,11.3,1111122 
NERRS,ioos:station:NOAA.NERRS:wkbfrwq:1,2019-02-10T06:45:00Z,30.4162,-87.8228,2.26,9.3,1111122 
NERRS,ioos:station:NOAA.NERRS:wkbfrwq:1,2019-02-10T07:45:00Z,30.4162,-87.8228,2.24,9.2,1111122 
NERRS,ioos:station:NOAA.NERRS:wkbfrwq:1,2019-02-10T08:45:00Z,30.4162,-87.8228,2.3,10.9,1111122 
NERRS,ioos:station:NOAA.NERRS:wkbfrwq:1,2019-02-10T09:45:00Z,30.4162,-87.8228,2.36,10.2,1111122 
NERRS,ioos:station:NOAA.NERRS:wkbfrwq:1,2019-02-10T10:45:00Z,30.4162,-87.8228,2.35,9.9,1111122 
NERRS,ioos:station:NOAA.NERRS:wkbfrwq:1,2019-02-10T11:45:00Z,30.4162,-87.8228,2.28,9.6,1111122 
NERRS,ioos:station:NOAA.NERRS:wkbfrwq:1,2019-02-10T12:45:00Z,30.4162,-87.8228,2.25,10.0,1111122 
NERRS,ioos:station:NOAA.NERRS:wkbfrwq:1,2019-02-10T13:45:00Z,30.4162,-87.8228,2.25,9.7,1111122 
NERRS,ioos:station:NOAA.NERRS:wkbfrwq:1,2019-02-10T15:45:00Z,30.4162,-87.8228,2.29,9.7,1111122 
NERRS,ioos:station:NOAA.NERRS:wkbfrwq:1,2019-02-10T16:45:00Z,30.4162,-87.8228,2.32,9.7,1111122 
NERRS,ioos:station:NOAA.NERRS:wkbfrwq:1,2019-02-10T17:45:00Z,30.4162,-87.8228,2.33,9.9,1111122 
NERRS,ioos:station:NOAA.NERRS:wkbfrwq:1,2019-02-10T19:45:00Z,30.4162,-87.8228,2.36,10.3,1111122 
NERRS,ioos:station:NOAA.NERRS:wkbfrwq:1,2019-02-10T20:45:00Z,30.4162,-87.8228,2.4,10.6,1111122 
NERRS,ioos:station:NOAA.NERRS:wkbfrwq:1,2019-02-10T21:45:00Z,30.4162,-87.8228,2.39,9.9,1111122 
NERRS,ioos:station:NOAA.NERRS:wkbfrwq:1,2019-02-10T22:45:00Z,30.4162,-87.8228,2.38,10.2,1111122 
NERRS,ioos:station:NOAA.NERRS:wkbfrwq:1,2019-02-11T00:45:00Z,30.4162,-87.8228,2.41,10.9,1111122 
NERRS,ioos:station:NOAA.NERRS:wkbfrwq:1,2019-02-11T01:45:00Z,30.4162,-87.8228,2.39,9.9,1111122 
NERRS,ioos:station:NOAA.NERRS:wkbfrwq:1,2019-02-11T02:45:00Z,30.4162,-87.8228,2.35,9.7,1111122 
NERRS,ioos:station:NOAA.NERRS:wkbfrwq:1,2019-02-11T03:45:00Z,30.4162,-87.8228,2.35,10.2,1111122 
NERRS,ioos:station:NOAA.NERRS:wkbfrwq:1,2019-02-11T04:45:00Z,30.4162,-87.8228,2.34,10.5,1111122 
NERRS,ioos:station:NOAA.NERRS:wkbfrwq:1,2019-02-11T05:45:00Z,30.4162,-87.8228,2.35,10.4,1111122 
NERRS,ioos:station:NOAA.NERRS:wkbfrwq:1,2019-02-11T06:45:00Z,30.4162,-87.8228,2.36,10.1,1111122 
NERRS,ioos:station:NOAA.NERRS:wkbfrwq:1,2019-02-11T07:45:00Z,30.4162,-87.8228,2.34,10.0,1111122 
NERRS,ioos:station:NOAA.NERRS:wkbfrwq:1,2019-02-11T09:45:00Z,30.4162,-87.8228,2.3,10.4,1111122 
NERRS,ioos:station:NOAA.NERRS:wkbfrwq:1,2019-02-11T10:45:00Z,30.4162,-87.8228,2.3,10.4,1111122 
NERRS,ioos:station:NOAA.NERRS:wkbfrwq:1,2019-02-11T11:45:00Z,30.4162,-87.8228,2.29,10.6,1111122 
NERRS,ioos:station:NOAA.NERRS:wkbfrwq:1,2019-02-11T12:45:00Z,30.4162,-87.8228,2.27,10.3,1111122 
NERRS,ioos:station:NOAA.NERRS:wkbfrwq:1,2019-02-11T13:45:00Z,30.4162,-87.8228,2.27,10.3,1111122 
NERRS,ioos:station:NOAA.NERRS:wkbfrwq:1,2019-02-11T14:45:00Z,30.4162,-87.8228,2.29,10.1,1111122 
NERRS,ioos:station:NOAA.NERRS:wkbfrwq:1,2019-02-11T15:45:00Z,30.4162,-87.8228,2.3,9.9,1111122 
NERRS,ioos:station:NOAA.NERRS:wkbfrwq:1,2019-02-11T16:45:00Z,30.4162,-87.8228,2.33,9.8,1111122 
NERRS,ioos:station:NOAA.NERRS:wkbfrwq:1,2019-02-11T17:45:00Z,30.4162,-87.8228,2.34,10.0,1111122 
NERRS,ioos:station:NOAA.NERRS:wkbfrwq:1,2019-02-11T18:45:00Z,30.4162,-87.8228,2.34,10.1,1111122 
NERRS,ioos:station:NOAA.NERRS:wkbfrwq:1,2019-02-11T20:45:00Z,30.4162,-87.8228,2.44,10.4,1111122 
NERRS,ioos:station:NOAA.NERRS:wkbfrwq:1,2019-02-11T21:45:00Z,30.4162,-87.8228,2.47,10.7,1111122 
NERRS,ioos:station:NOAA.NERRS:wkbfrwq:1,2019-02-11T22:45:00Z,30.4162,-87.8228,2.45,10.5,1111122 
NERRS,ioos:station:NOAA.NERRS:wkbfrwq:1,2019-02-12T00:45:00Z,30.4162,-87.8228,2.37,10.2,1111122 
NERRS,ioos:station:NOAA.NERRS:wkbfrwq:1,2019-02-12T01:45:00Z,30.4162,-87.8228,2.33,9.6,1111122 
NERRS,ioos:station:NOAA.NERRS:wkbfrwq:1,2019-02-12T02:45:00Z,30.4162,-87.8228,2.31,9.4,1111122 
NERRS,ioos:station:NOAA.NERRS:wkbfrwq:1,2019-02-12T03:45:00Z,30.4162,-87.8228,2.27,9.3,1111122 
NERRS,ioos:station:NOAA.NERRS:wkbfrwq:1,2019-02-12T04:45:00Z,30.4162,-87.8228,2.25,9.1,1111122 
NERRS,ioos:station:NOAA.NERRS:wkbfrwq:1,2019-02-12T05:45:00Z,30.4162,-87.8228,2.28,8.9,1111122 
NERRS,ioos:station:NOAA.NERRS:wkbfrwq:1,2019-02-12T06:45:00Z,30.4162,-87.8228,2.28,8.8,1111122 
NERRS,ioos:station:NOAA.NERRS:wkbfrwq:1,2019-02-12T07:45:00Z,30.4162,-87.8228,2.27,8.4,1111122 
NERRS,ioos:station:NOAA.NERRS:wkbfrwq:1,2019-02-12T08:45:00Z,30.4162,-87.8228,2.29,8.8,1111122 
NERRS,ioos:station:NOAA.NERRS:wkbfrwq:1,2019-02-12T09:45:00Z,30.4162,-87.8228,2.33,8.6,1111122 
NERRS,ioos:station:NOAA.NERRS:wkbfrwq:1,2019-02-12T10:45:00Z,30.4162,-87.8228,2.37,8.4,1111122 